TimeMST,TemperatureF,Dew PointF,Humidity,Sea Level PressureIn,VisibilityMPH,Wind Direction,Wind SpeedMPH,Gust SpeedMPH,PrecipitationIn,Events,Conditions,WindDirDegrees,DateUTC
12:58 AM,24.4,7.7,49,30.31,10.0,ESE,12.7,-,N/A,,Clear,110,2013-03-05 07:58:00
1:58 AM,24.3,8.2,51,30.30,10.0,ESE,11.5,-,N/A,,Clear,110,2013-03-05 08:58:00
2:58 AM,23.4,8.8,54,30.29,10.0,ESE,13.8,-,N/A,,Clear,110,2013-03-05 09:58:00
3:58 AM,23.5,8.2,52,30.29,10.0,ESE,15.0,-,N/A,,Clear,110,2013-03-05 10:58:00
4:58 AM,23.0,8.4,54,30.29,10.0,ESE,16.1,-,N/A,,Clear,110,2013-03-05 11:58:00
5:58 AM,21.7,8.8,57,30.30,10.0,ESE,17.3,-,N/A,,Clear,120,2013-03-05 12:58:00
6:58 AM,22.1,8.1,55,30.30,10.0,ESE,13.8,-,N/A,,Clear,110,2013-03-05 13:58:00
7:58 AM,23.0,8.2,53,30.29,10.0,ESE,15.0,21.9,N/A,,Clear,110,2013-03-05 14:58:00
8:58 AM,24.6,9.1,52,30.27,10.0,ESE,21.9,-,N/A,,Clear,110,2013-03-05 15:58:00
9:58 AM,28.6,9.9,46,30.24,10.0,East,17.3,-,N/A,,Clear,100,2013-03-05 16:58:00
10:58 AM,35.6,10.4,35,30.21,10.0,Variable,2.3,-,N/A,,Clear,0,2013-03-05 17:58:00
11:58 AM,35.1,13.1,40,30.20,10.0,NNW,5.8,-,N/A,,Clear,340,2013-03-05 18:58:00
12:58 PM,39.0,11.3,32,30.15,10.0,North,3.5,-,N/A,,Clear,10,2013-03-05 19:58:00
1:58 PM,39.7,14.4,36,30.11,10.0,NNW,6.9,-,N/A,,Clear,340,2013-03-05 20:58:00
2:58 PM,43.2,12.7,29,30.07,10.0,NW,5.8,-,N/A,,Clear,310,2013-03-05 21:58:00
3:58 PM,40.5,14.5,35,30.06,10.0,NNW,6.9,-,N/A,,Clear,330,2013-03-05 22:58:00
4:58 PM,43.2,13.8,31,30.02,10.0,NNW,5.8,-,N/A,,Clear,330,2013-03-05 23:58:00
5:58 PM,34.5,17.6,50,30.06,10.0,North,8.1,-,N/A,,Clear,350,2013-03-06 00:58:00
6:58 PM,35.4,17.4,48,30.04,10.0,East,3.5,-,N/A,,Partly Cloudy,100,2013-03-06 01:58:00
7:58 PM,35.4,16.9,47,30.01,10.0,ENE,2.3,-,N/A,,Overcast,60,2013-03-06 02:58:00
8:58 PM,32.4,18.9,58,30.01,10.0,SSE,8.1,-,N/A,,Mostly Cloudy,150,2013-03-06 03:58:00
9:58 PM,34.5,17.1,49,29.98,10.0,SE,5.8,-,N/A,,Scattered Clouds,130,2013-03-06 04:58:00
10:58 PM,36.7,16.5,44,29.94,10.0,SE,9.2,-,N/A,,Partly Cloudy,130,2013-03-06 05:58:00
11:58 PM,37.8,16.2,42,29.92,10.0,SSE,12.7,-,N/A,,Scattered Clouds,150,2013-03-06 06:58:00